Regional Weather Roundup
Issued by NWS

Home | Current Version | Previous Version | Text Only | Print | Product List | Glossary On
Versions: 1 2 3 4 5 6 7 8 9 10 11 12 13 14 15 16 17 18 19 20 21 22 23 24 25 26 27 28 29 30 31 32 33 34 35 36 37 38 39 40 41 42 43 44 45 46 47 48 49 50
000
ASUS44 KBMX 301710
RWRAL

ALABAMA REGIONAL WEATHER ROUNDUP
NATIONAL WEATHER SERVICE BIRMINGHAM AL
1100 AM CST FRI JAN 30 2015

NOTE: "FAIR" INDICATES FEW OR NO CLOUDS BELOW 12,000 FEET
WITH NO SIGNIFICANT WEATHER AND/OR OBSTRUCTIONS TO VISIBILITY.

THE REMARK "TC" DENOTES TEMPERATURE IN DEGREES CELSIUS.

ALZ001>011-014-016>018-020-301800-
NORTH ALABAMA

CITY           SKY/WX    TMP DP  RH WIND       PRES   REMARKS
MUSCLE SHOALS  SUNNY     43  25  49 NE8G16    30.49S
HUNTSVILLE     MOSUNNY   43  24  47 N14G24    30.46F
DECATUR        PTSUNNY   41  26  55 NE13      30.48S
HALEYVILLE       N/A     42  27  55 NE10G18   30.46S
GADSDEN        SUNNY    N/A N/A N/A N20       30.42S
$$

ALZ012-013-022-023-030>036-040>044-301800-
WEST CENTRAL ALABAMA

CITY           SKY/WX    TMP DP  RH WIND       PRES   REMARKS
TUSCALOOSA     SUNNY     52  29  41 N13       30.44S
$$

ALZ015-024>027-033>036-040>044-301800-
CENTRAL ALABAMA

CITY           SKY/WX    TMP DP  RH WIND       PRES   REMARKS
BIRMINGHAM     MOSUNNY   47  25  42 N16       30.43S
MONTGOMERY     SUNNY     52  29  41 VRB7      30.39F
SHELBY CO ARPT SUNNY     49  28  44 N8        30.40S
MAXWELL AFB    SUNNY     51  29  44 VRB6      30.39S
GREENVILLE     FAIR      51  29  42 N9        30.36F
$$

ALZ019-021-028-029-037-038-045>048-301800-
EAST CENTRAL ALABAMA

CITY           SKY/WX    TMP DP  RH WIND       PRES   REMARKS
ANNISTON       SUNNY     46  25  43 N10G20    30.40S
ALEXANDER CITY SUNNY     52  24  33 N10       30.36F
AUBURN         SUNNY     48  25  40 N15       30.37S
$$

ALZ051>064-301800-
SOUTHWEST ALABAMA

CITY           SKY/WX    TMP DP  RH WIND       PRES   REMARKS
MOBILE         PTSUNNY   50  31  48 N14       30.39S
BROOKLEY FIELD MOSUNNY   53  33  46 N17       30.39F
EVERGREEN      SUNNY     53  32  44 NE12      30.39S
$$

ALZ049-050-065>069-301800-
SOUTHEAST ALABAMA

CITY           SKY/WX    TMP DP  RH WIND       PRES   REMARKS
DOTHAN         SUNNY     52  30  43 N13       30.36S
OZARK          SUNNY     53  29  39 N13       30.33F
TROY           SUNNY     52  28  39 N14       30.37S
EUFAULA        FAIR      53  30  41 VRB6      30.33S
$$


USA.gov is the U.S. government's official web portal to all federal, state and local government web resources and services.